RH
24 27 32 26 22 18 20 20 20 18 18 34 35 39 52 48 46 50 59 60 60 59 54 52 50 49 52 59 64 67 68 70 74 90 90 96 89 93 95 90 84 87 91 89
24 27 24 20 20 18 18 19 17 18 18 34 37 36 36 48 48 47 48 51 55 56 52 48 50 48 51 58 62 69 68 69 72 72 73 84 90 90 88 90 86 84 89 91
24 20 16 19 20 18 20 19 17 17 20 36 40 47 40 48 48 46 46 43 43 45 44 48 49 49 50 56 63 68 68 68 69 71 80 97 96 96 96 95 92 86 83 87
18 14 15 18 20 19 26 16 14 15 19 23 37 57 49 47 52 49 48 47 45 44 41 41 50 53 51 54 58 65 66 67 68 74 76 73 76 80 95 91 89 91 86 84
18 16 14 18 16 18 19 15 16 17 20 26 26 45 43 41 50 44 42 43 42 42 41 41 43 49 49 52 59 64 67 66 67 71 67 72 72 71 92 93 88 93 96 93
15 16 12 15 15 13 16 19 16 22 24 29 18 25 22 46 37 34 32 35 38 38 38 39 38 41 48 50 59 64 71 70 68 74 71 73 72 86 89 95 95 97 98 98
18 14 16 14 17 18 18 20 28 26 27 24 18 30 18 28 30 27 27 29 32 34 35 36 38 39 44 52 60 65 71 75 73 76 74 76 72 77 79 85 86 97 99 98
28 30 16 14 17 18 20 19 31 29 30 21 24 30 23 18 24 26 23 23 25 30 32 34 35 37 40 48 57 62 70 73 78 78 77 75 72 73 72 82 85 84 94 90
28 26 17 14 12 13 19 19 15 20 50 26 27 23 21 20 24 27 29 24 26 27 30 31 32 34 37 42 53 60 66 67 77 78 76 77 75 74 77 88 82 87 92 86
20 25 17 15 15 14 13 13 21 22 24 24 21 23 21 26 20 28 32 29 26 26 27 28 29 31 35 37 46 54 60 62 68 74 73 74 76 75 77 84 89 89 91 87
23 22 20 16 18 19 22 17 18 16 19 19 23 16 12 18 23 26 30 29 27 27 26 25 27 28 32 35 43 52 58 60 62 68 70 71 75 76 79 79 86 83 89 87
38 27 20 17 16 11 14 16 19 21 20 18 13 15 15 14 15 21 22 28 26 25 25 23 23 26 32 36 42 52 57 60 59 64 66 69 70 76 81 80 88 84 82 83
59 55 29 21 17 17 18 16 14 16 20 16 17 18 14 13 17 23 22 29 31 27 26 25 23 26 31 36 41 52 56 60 58 64 67 70 73 78 77 77 79 90 81 80
54 61 45 31 24 19 18 15 16 14 18 16 15 15 17 14 15 16 22 26 30 32 30 31 33 29 31 35 40 52 57 59 59 64 68 72 74 77 77 72 76 87 84 82
64 79 55 43 35 30 22 16 12 17 15 16 14 15 13 14 15 15 14 16 26 28 27 27 28 32 33 36 42 50 56 63 60 67 71 72 72 75 77 78 76 76 86 84
69 72 62 50 29 26 24 17 15 12 13 14 13 16 13 10 13 14 11 13 20 31 30 26 28 32 33 34 42 46 55 66 63 68 72 72 75 77 80 82 82 82 85 84
72 77 70 69 41 36 31 19 15 14 12 13 15 13 13 13 13 13 13 17 20 21 28 31 28 29 30 33 37 44 53 59 68 71 72 73 75 79 83 84 87 88 86 86
70 77 70 69 56 49 22 14 13 13 13 16 15 14 16 14 12 14 17 20 26 25 26 31 33 34 30 31 35 39 48 60 70 73 74 76 76 79 81 84 88 89 87 89
52 57 74 68 66 44 24 21 16 17 18 19 14 16 16 18 26 26 28 27 28 26 27 28 32 32 38 37 38 42 49 59 70 73 75 76 78 80 82 85 86 86 90 88
50 48 52 66 64 54 40 55 52 40 18 19 20 20 20 23 24 17 40 31 26 23 23 28 43 46 45 40 41 45 49 57 70 71 71 73 76 79 83 83 83 84 86 89
74 66 70 65 62 54 66 77 68 44 21 49 33 25 37 25 21 31 41 47 40 32 36 31 48 54 43 47 44 49 50 54 56 62 66 70 75 78 78 81 81 86 93 91
82 86 86 64 70 73 78 74 94 90 93 54 50 50 49 61 74 69 64 75 75 74 77 73 35 44 59 55 42 47 52 49 51 55 61 70 72 75 77 81 84 90 96 96
84 86 90 68 72 83 84 83 81 84 97 93 66 79 80 89 90 92 95 96 97 96 96 97 96 95 86 62 68 49 45 48 52 55 58 60 70 73 74 84 93 96 97 94
80 87 87 83 86 89 87 79 82 85 83 84 88 92 89 94 96 98 98 98 98 98 98 98 98 97 96 98 96 81 68 57 59 57 59 60 68 74 72 79 87 95 97 97
80 84 75 83 92 80 87 81 86 84 77 78 80 85 91 93 96 96 97 98 98 97 95 94 96 95 93 93 92 88 91 90 69 59 57 59 64 74 84 97 98 96 95 97
83 82 85 90 94 94 96 89 84 86 82 82 82 81 83 84 90 92 96 97 97 97 98 98 96 96 91 81 80 83 85 78 90 92 92 97 99 99 99 99 99 100 100 100
Wind_Speed
7 8 10 10 7 6 3 4 6 5 5 5 11 7 20 20 16 18 19 20 19 22 22 19 19 18 17 15 15 16 15 14 10 5 6 4 5 3 3 4 7 6 6 6
3 16 10 9 9 9 7 7 13 1 7 5 6 13 19 22 26 26 23 22 23 21 18 18 20 19 19 21 20 16 17 15 13 10 8 5 4 3 3 4 5 6 6 6
12 6 9 9 7 8 6 9 10 9 2 1 5 3 10 20 11 15 18 22 20 23 24 18 21 22 20 19 21 20 19 17 15 14 6 3 3 2 2 2 3 6 7 8
8 9 12 8 8 9 8 6 7 3 4 4 5 5 6 16 21 20 18 19 20 21 19 17 17 20 22 21 20 20 19 18 15 14 12 14 8 7 4 5 4 5 7 8
10 14 17 13 19 8 11 5 6 4 5 1 5 1 7 17 18 20 20 21 22 21 20 22 21 23 24 20 20 19 19 19 17 16 16 12 10 8 4 3 6 5 4 6
16 5 15 10 8 14 5 1 4 3 3 6 16 9 10 13 23 23 18 24 26 24 24 23 23 18 19 18 18 19 20 19 18 17 18 17 16 9 6 4 5 4 4 4
7 20 5 7 11 6 6 8 4 4 5 11 9 6 16 9 22 28 27 26 28 26 25 24 22 20 19 20 20 18 19 20 19 18 18 17 16 14 13 10 7 6 4 3
9 6 18 7 10 12 9 12 8 8 5 8 5 11 9 17 12 19 25 28 23 23 23 25 26 23 22 23 22 21 21 20 19 19 19 17 16 11 11 9 7 7 6 7
10 12 4 16 8 16 7 10 13 3 1 3 6 9 6 8 11 10 13 15 21 23 24 27 25 24 24 21 24 24 22 21 20 21 17 16 15 14 12 10 10 7 6 5
7 2 8 10 8 8 16 9 5 2 11 13 5 8 6 7 15 10 11 12 17 20 23 25 23 23 22 23 22 23 23 24 22 22 18 16 16 15 12 10 11 10 7 7
3 4 6 8 9 19 6 8 3 7 7 9 5 11 9 10 10 12 12 14 17 19 24 24 22 22 21 21 19 22 21 22 20 19 18 17 15 14 12 12 11 12 9 10
6 3 15 19 7 17 14 16 10 6 13 9 12 13 1 13 15 11 10 11 18 23 24 25 22 20 18 20 19 22 21 21 21 20 19 19 16 15 15 14 12 12 12 11
8 5 2 6 5 3 10 13 17 12 3 20 10 7 6 9 8 9 10 9 10 15 18 16 14 14 19 19 19 20 21 22 20 19 19 18 17 16 17 17 15 13 13 12
2 3 3 7 5 2 7 11 16 16 13 16 18 7 4 8 10 9 8 7 8 9 13 13 10 13 16 19 21 20 21 20 20 19 20 20 19 19 18 17 16 14 15 13
5 2 4 6 12 15 15 12 26 21 23 18 15 12 13 10 12 11 11 7 8 12 11 16 18 17 17 16 17 18 18 19 20 20 20 21 20 18 17 17 16 15 15 14
4 4 6 5 9 13 17 17 24 28 24 13 15 8 10 16 9 5 10 10 10 10 14 16 17 18 19 21 20 19 18 19 21 21 22 19 19 18 18 16 15 14 14 14
3 1 6 6 9 12 11 30 20 15 16 18 18 10 9 9 10 12 13 11 11 10 12 13 20 21 20 21 23 22 22 20 21 21 20 20 19 18 18 15 15 16 16 14
4 2 3 6 6 9 12 11 16 21 17 9 5 10 11 13 16 15 12 10 11 10 11 10 9 7 16 18 18 19 17 19 21 20 19 18 19 19 18 17 18 16 15 17
19 6 3 3 4 11 15 8 7 12 10 8 15 11 8 6 3 5 7 8 11 11 10 12 14 14 10 11 15 16 16 19 19 20 20 20 21 20 19 20 20 16 14 14
20 18 8 3 5 7 1 15 22 18 20 14 14 12 10 8 6 10 5 5 7 8 4 6 7 3 8 11 13 16 17 19 20 20 22 22 21 20 21 21 20 17 14 16
9 9 13 9 6 10 7 23 11 5 11 6 11 11 10 8 9 6 7 4 3 6 7 6 7 10 13 9 13 17 17 20 22 20 19 17 18 20 19 17 15 16 16 13
10 9 8 10 10 11 12 11 9 11 22 13 8 8 9 7 6 6 6 4 5 5 5 4 2 6 3 6 13 15 16 20 17 17 16 17 18 16 14 17 15 15 14 14
6 7 10 12 8 4 2 2 15 16 14 11 6 6 12 9 5 5 5 6 6 6 6 5 6 8 8 6 5 7 18 16 16 15 17 18 17 17 17 17 17 12 13 12
8 6 7 3 5 6 7 12 12 14 8 11 12 11 5 12 7 8 7 7 8 8 9 8 11 12 11 8 6 5 7 6 6 13 17 15 16 17 15 10 10 11 11 12
10 10 11 3 3 4 9 13 12 11 9 13 16 16 13 11 9 7 5 6 6 6 6 8 8 7 7 7 7 9 10 6 7 10 10 11 11 12 9 5 6 11 6 10
10 12 11 8 6 7 6 11 11 5 10 12 12 15 14 12 10 6 8 5 6 8 6 7 7 6 6 7 7 8 7 10 12 5 2 6 4 8 9 8 9 15 21 12
Wind_Direction
182 188 207 208 190 199 188 249 258 137 297 129 214 180 180 185 188 189 186 191 193 204 205 199 203 195 186 185 185 190 190 193 183 173 177 187 197 190 215 213 202 188 187 189
150 219 197 194 190 213 220 232 262 116 206 158 207 214 191 183 201 192 186 192 198 206 204 201 204 199 189 185 189 190 194 190 190 189 190 184 180 188 180 194 190 192 187 194
208 228 173 184 187 190 223 207 243 240 26 41 104 344 171 202 205 202 206 204 201 200 197 192 194 198 194 195 191 192 192 192 193 190 169 103 90 67 131 180 196 209 201 204
223 230 194 191 208 174 235 203 258 264 54 237 129 257 188 193 212 207 207 207 207 210 209 198 194 195 195 198 194 194 192 191 193 184 186 196 193 189 195 182 187 197 197 204
218 185 201 211 213 165 240 189 224 180 205 227 226 184 264 177 212 217 213 211 212 209 208 207 197 198 200 190 193 193 193 195 189 191 197 196 201 199 176 163 185 201 193 185
209 206 195 195 196 200 175 231 9 30 136 241 244 171 247 187 204 212 215 213 211 207 209 211 210 197 201 197 193 191 188 196 191 190 197 197 198 190 185 180 191 202 191 189
179 224 220 158 194 183 130 111 255 278 204 238 209 195 226 205 203 209 206 213 214 204 205 209 207 202 194 195 195 191 191 195 193 193 197 197 199 194 197 193 196 180 176 187
180 215 205 173 182 195 198 176 166 197 202 241 161 230 231 209 224 212 210 214 210 206 205 208 207 202 200 193 191 190 191 196 192 193 198 198 199 198 201 190 192 200 189 197
180 233 228 194 189 178 195 192 194 146 189 11 229 277 299 203 230 226 208 209 205 203 202 211 206 202 201 194 192 192 190 194 192 193 194 196 196 198 198 188 192 191 189 182
215 214 218 203 170 209 190 172 162 346 216 242 264 248 230 196 220 232 220 198 205 208 206 210 209 204 201 199 193 192 193 192 191 191 193 193 195 198 195 188 190 189 186 183
327 189 224 129 188 199 190 194 181 151 161 219 231 255 179 204 221 205 219 212 208 208 210 210 212 207 201 195 189 196 193 194 195 192 193 195 197 198 195 198 193 195 177 181
336 268 243 226 221 202 208 208 166 163 223 244 237 232 303 191 200 197 228 216 219 211 212 212 208 198 192 194 188 193 193 194 195 192 192 195 195 194 196 204 195 192 191 184
341 304 287 331 294 317 213 204 200 217 163 227 213 245 220 175 199 211 219 233 225 228 222 211 203 194 191 192 191 192 193 196 194 192 191 195 195 194 200 205 200 192 194 187
70 296 236 260 265 283 206 229 215 204 225 228 231 237 234 207 204 230 219 234 208 194 186 187 182 193 194 193 193 192 196 192 192 191 192 193 195 198 201 205 203 191 195 188
75 262 274 299 295 288 266 259 223 215 221 216 228 200 234 223 200 213 225 223 203 220 218 193 192 186 187 196 200 197 195 190 189 191 194 199 197 199 201 203 201 200 194 193
4 281 345 288 256 256 261 255 249 227 218 230 239 219 212 228 240 253 237 235 228 208 201 208 191 187 191 189 192 191 196 192 186 192 201 194 197 197 202 203 200 198 199 196
304 162 359 282 313 318 269 234 247 256 221 199 218 204 191 242 221 226 233 227 224 225 206 194 196 194 196 193 190 192 190 181 191 196 195 196 195 199 201 199 198 200 199 194
205 174 164 267 307 234 265 196 232 235 242 218 158 201 195 202 225 223 216 192 217 223 201 197 206 223 209 199 196 191 184 186 188 195 198 196 195 199 196 196 204 202 197 197
205 181 236 225 239 291 295 319 241 184 232 210 202 214 214 201 102 277 230 204 225 221 217 202 197 202 194 190 190 185 185 186 190 193 196 197 197 198 195 199 202 200 199 201
200 206 187 205 242 236 92 335 334 315 226 199 185 196 177 142 184 236 223 196 207 216 240 233 217 222 166 187 171 180 188 186 196 196 201 199 197 198 198 201 199 197 197 203
174 198 203 234 262 284 343 337 307 161 245 166 187 186 151 181 204 192 160 205 188 163 197 234 190 187 204 161 168 186 186 200 204 201 203 199 197 201 204 201 195 194 195 191
196 160 175 210 219 259 11 350 354 308 300 273 142 151 135 134 142 123 99 75 44 24 51 25 214 223 232 178 181 190 198 210 202 202 196 197 198 197 194 192 197 194 187 188
250 177 175 187 222 256 308 280 294 296 287 308 117 113 128 117 102 93 102 77 55 38 44 47 66 63 25 8 317 243 227 209 202 198 200 197 194 195 193 190 184 186 179 179
276 179 197 148 208 263 31 346 322 317 351 352 3 68 40 107 76 62 37 39 48 40 39 34 44 50 65 46 24 300 312 253 235 221 207 201 189 189 188 180 177 175 191 182
244 191 210 195 222 274 44 354 318 320 12 40 44 46 50 80 66 79 67 45 45 52 40 45 52 40 23 34 48 45 25 341 220 219 219 215 196 174 144 93 186 177 184 174
230 226 197 211 194 116 72 312 307 331 47 53 55 49 36 39 47 40 61 38 38 38 36 45 44 40 18 4 358 10 31 54 34 333 181 123 109 121 125 105 83 65 111 108